Hourly Data Report for July 09, 2016

OTTAWA INTL A
ONTARIO

45°19'00.000" N
75°40'00.000" W
114.90 m
6106001
71628
YOW

Download Data

Hourly Data (July 2016)
Hourly Data Report for July 9, 2016
TIME
LST
Temp Definition
°C
Dew Point Definition
°C
Rel Hum Definition
%
Precip. Amount Definition
mm

Wind Dir Definition
10's deg

Wind Spd Definition
km/h
Visibility Definition
km
Stn Press Definition
kPa
Hmdx Definition


Wind Chill Definition


Weather Definition


00:00 17.7 15.2 85   7 18 24.1 99.53     LegendNANA
01:00 17.8 15.1 84   7 9 24.1 99.50     Mostly Cloudy
02:00 16.6 15.6 94   6 15 12.9 99.41     Rain
03:00 16.4 15.8 96   6 18 16.1 99.34     Rain
04:00 16.3 15.8 97   9 10 16.1 99.37     Cloudy
05:00 16.4 15.9 97   6 17 16.1 99.37     LegendNANA
06:00 16.3 15.8 97   5 19 16.1 99.42     LegendNANA
07:00 16.6 16.0 96   7 16 16.1 99.38     Cloudy
08:00 16.9 16.3 96   7 20 16.1 99.28     LegendNANA
09:00 17.1 16.5 96   4 21 12.9 99.25     Thunderstorms
10:00 16.8 16.3 97   4 17 4.8 99.30     Thunderstorms,Moderate Rain Showers,Fog
11:00 17.2 16.6 96   7 15 16.1 99.28     LegendNANA
12:00 17.5 16.9 96   4 20 12.9 99.26     Rain Showers
13:00 17.9 17.4 97   6 17 16.1 99.25     Rain Showers
14:00 17.8 17.3 97   7 20 19.3 99.23     LegendNANA
15:00 18.4 17.6 95   9 16 19.3 99.30     LegendNANA
16:00 18.3 17.5 95   7 21 19.3 99.26     Cloudy
17:00 18.2 17.2 94   5 21 19.3 99.28     LegendNANA
18:00 17.6 17.0 96   8 23 19.3 99.34     LegendNANA
19:00 17.3 16.7 96   7 17 16.1 99.38     Cloudy
20:00 17.0 16.5 97   5 19 16.1 99.40     LegendNANA
21:00 16.6 16.1 97   4 24 16.1 99.45     LegendNANA
22:00 16.1 15.6 97   3 23 16.1 99.46     Cloudy
23:00 16.1 15.6 97   1 16 6.4 99.48     Rain

Notes on Data Quality.

Legend

  • E = Estimated
  • M = Missing
  • NA = Not Available*
  • [empty] = Indicates an unobserved value
Date modified: